RH
26 29 30 32 32 33 32 32 32 33 36 45 55 57 55 53 52 50 51 51 52 58 59 58 55 58 58 52 57 57 65 68 59 52 65 59 47 31 39 46 60 63 54 54 55
24 26 29 30 31 32 32 32 32 32 32 39 50 54 53 52 50 46 46 47 46 47 50 50 53 58 54 51 56 64 75 69 53 51 54 59 50 35 38 43 54 60 65 59 62
20 23 25 27 28 30 30 31 31 32 32 35 41 51 54 54 49 49 47 45 44 43 49 52 54 63 56 54 54 65 72 60 52 56 58 55 51 44 40 44 47 49 62 73 69
19 19 20 21 23 26 28 30 30 31 32 34 38 43 44 46 52 49 46 46 47 42 48 51 55 65 61 56 55 63 57 55 50 46 45 53 52 53 44 41 38 36 36 77 82
19 18 17 17 18 20 23 26 28 30 31 32 36 42 46 48 42 47 48 49 49 43 52 56 68 66 66 66 56 57 53 49 44 41 40 42 48 53 49 42 42 41 33 60 77
18 18 17 16 15 16 18 22 25 28 31 31 33 38 47 55 39 47 47 51 49 45 50 60 71 72 67 62 60 55 56 52 43 41 39 43 41 42 39 42 41 31 40 68 89
18 17 16 15 15 15 16 18 22 25 30 31 33 37 44 39 41 46 46 50 52 50 45 52 70 64 65 63 57 57 61 54 46 38 40 41 48 53 38 39 43 42 43 55 87
20 20 20 19 18 14 14 16 18 22 26 32 36 41 40 40 46 45 45 50 53 53 48 46 54 60 57 59 58 61 58 64 46 45 38 38 44 44 40 40 41 42 42 47 71
30 28 27 25 20 18 15 15 18 21 23 33 40 45 41 44 47 50 48 52 56 55 48 45 47 57 59 73 79 72 76 67 54 43 42 54 41 42 34 41 40 42 42 39 53
33 30 27 26 26 22 20 15 20 26 35 44 52 58 34 46 51 54 52 57 55 51 52 47 56 74 79 81 86 80 77 69 63 48 52 54 58 47 34 40 40 43 40 41 41
31 28 26 27 27 28 23 19 32 46 57 26 30 37 42 45 56 57 57 58 52 49 58 61 71 83 76 77 71 65 69 72 68 60 63 64 62 48 40 40 41 38 41 34 34
31 27 24 26 25 27 28 21 28 42 48 27 34 46 45 56 58 61 60 53 51 62 61 67 79 63 65 72 78 80 85 86 72 65 64 61 59 50 43 40 37 33 33 36 34
31 27 25 27 28 32 28 23 31 38 40 35 40 46 43 51 54 52 61 54 52 65 71 73 56 63 67 75 81 82 87 84 79 68 64 64 51 47 38 36 33 30 28 29 31
34 29 27 31 37 32 27 25 25 32 58 40 50 50 50 46 61 53 59 51 60 65 68 74 62 62 70 72 76 85 73 73 76 77 86 54 68 53 44 39 38 32 28 27 26
37 33 30 38 36 29 50 51 47 48 52 34 55 54 54 53 66 76 69 69 76 71 66 68 72 78 77 72 70 73 65 75 76 83 79 71 84 60 48 44 38 34 29 26 26
51 41 32 39 36 53 56 52 57 62 42 55 49 60 66 69 75 83 85 75 73 76 76 74 68 74 74 68 68 59 64 67 77 78 98 66 72 62 46 39 39 33 29 25 24
57 55 40 32 44 51 52 56 73 61 24 43 56 60 62 74 82 87 90 95 91 92 92 72 84 79 64 66 59 59 76 94 94 98 84 77 82 54 41 42 36 33 30 26 24
23 42 51 35 37 52 50 52 58 30 33 42 52 60 64 66 70 92 97 98 90 76 84 91 77 90 77 70 75 80 83 90 93 94 84 72 85 62 45 36 32 32 28 26 24
3 17 47 44 37 57 49 87 51 37 26 46 51 59 58 58 57 92 96 94 85 76 84 92 84 74 66 57 59 73 90 68 91 93 96 80 65 53 48 45 41 38 35 29 26
3 8 54 63 54 65 66 57 51 36 50 56 54 52 58 56 73 94 92 75 77 76 60 64 79 62 58 49 50 66 64 88 99 96 95 80 75 72 53 40 40 44 46 39 36
5 15 62 81 82 71 87 75 50 35 39 58 53 44 45 46 65 84 64 53 69 83 63 65 71 70 58 71 74 62 74 68 80 88 93 92 77 69 68 53 49 47 41 38 34
8 36 75 90 81 83 91 69 44 41 44 57 55 53 47 40 56 69 68 48 54 73 85 70 76 89 74 57 60 64 64 66 90 88 96 89 76 45 58 55 55 50 52 55 56
32 21 42 88 96 89 79 68 55 52 51 49 54 48 43 47 58 57 54 42 52 71 79 70 83 85 70 55 51 66 64 56 65 74 86 85 77 55 52 50 51 52 64 62 64
45 87 74 90 79 86 78 82 74 60 62 53 56 52 57 62 56 64 52 39 46 67 59 62 80 82 70 60 64 69 64 59 57 80 69 73 64 50 49 55 56 55 55 63 73
60 86 96 96 69 76 83 77 69 78 64 68 65 64 73 82 73 72 60 50 40 44 62 69 79 78 72 69 56 55 58 62 68 63 74 61 68 50 48 52 48 45 53 77 88
84 83 79 79 72 73 71 69 78 92 93 83 86 91 96 100 96 94 92 74 61 67 56 51 78 70 75 62 62 66 59 57 55 55 56 53 54 42 41 38 51 50 68 85 85
84 83 86 79 85 72 72 82 86 79 71 98 90 88 89 92 90 84 92 99 100 99 91 88 61 58 70 54 53 63 49 51 51 51 48 59 46 37 45 53 45 50 63 68 79
Wind_Speed
7 7 7 7 8 8 9 9 10 11 12 13 10 9 11 11 9 7 4 3 3 4 7 8 5 5 5 3 3 2 1 3 6 6 5 4 2 8 6 4 4 10 3 4 25
8 8 8 8 8 8 9 10 10 11 11 11 10 9 10 11 6 3 4 4 3 3 7 7 3 2 3 2 3 2 2 5 2 3 3 5 5 5 5 8 3 4 6 6 28
10 10 10 10 9 9 9 10 11 11 11 10 10 10 10 11 6 2 1 3 5 7 8 5 1 1 2 1 1 1 2 1 2 5 1 2 4 6 3 2 1 5 8 14 31
11 12 11 12 11 11 11 11 11 11 11 11 11 11 11 9 3 4 2 3 6 7 6 1 3 2 1 1 2 2 2 2 6 9 9 5 10 1 8 16 10 13 14 17 31
12 13 13 13 13 13 12 12 12 11 10 11 11 12 11 8 7 8 5 4 5 5 5 2 1 2 1 2 3 2 2 7 11 16 11 10 8 6 14 26 21 19 14 20 30
14 15 15 16 15 15 13 13 13 12 11 11 11 11 11 5 5 6 5 2 4 3 3 2 2 0 1 1 0 1 3 7 6 12 12 6 9 2 8 12 13 10 11 18 27
14 15 15 16 17 16 15 14 13 13 12 12 12 11 13 16 6 8 7 4 3 3 2 1 2 1 2 3 2 3 3 5 6 7 4 4 9 9 18 13 21 17 13 14 25
14 15 16 16 16 16 16 15 14 14 13 13 12 10 9 10 9 8 8 6 3 2 2 3 4 2 2 4 5 3 2 2 4 3 7 8 21 3 9 12 18 23 18 16 23
13 14 15 17 17 16 15 14 13 13 13 12 10 7 10 8 11 9 9 7 4 4 2 2 5 2 2 3 3 4 2 2 6 3 2 8 7 2 7 14 19 21 28 23 21
15 16 17 17 16 15 13 13 12 12 11 10 12 5 11 6 7 10 9 8 4 3 3 4 2 2 2 3 4 4 3 3 4 3 3 7 8 6 20 11 16 18 25 33 23
16 19 18 18 16 14 11 8 6 6 13 12 6 5 3 8 10 9 10 7 4 3 3 1 3 6 10 5 2 2 3 4 3 5 6 8 5 10 17 14 15 20 23 28 27
18 19 19 18 16 12 9 6 5 5 11 18 26 21 10 12 8 11 11 6 5 4 3 3 6 9 4 4 4 4 3 4 5 5 3 8 14 11 13 13 16 23 24 24 33
19 21 20 18 12 6 7 7 6 6 5 7 11 13 20 19 8 12 15 7 4 5 6 6 3 4 5 3 4 4 4 3 7 4 5 5 14 8 8 12 21 23 25 27 27
19 19 19 16 5 3 1 4 7 6 3 5 4 3 8 9 5 14 17 7 2 7 5 5 3 4 3 4 6 4 7 6 4 1 4 2 6 4 5 11 6 22 25 29 30
18 18 17 13 5 1 0 3 3 2 4 2 3 6 9 6 9 3 15 8 5 5 5 6 5 4 5 6 7 7 4 5 3 3 2 7 4 6 4 9 12 15 29 28 30
19 18 15 12 5 2 2 6 4 5 6 2 4 5 4 2 2 6 4 5 2 3 4 6 2 5 6 3 7 3 3 2 2 2 6 15 9 7 6 15 9 18 29 31 29
19 18 16 11 5 4 5 5 4 4 2 3 3 3 2 4 3 4 6 6 6 4 5 2 7 4 4 3 1 3 5 2 2 3 6 3 7 14 9 9 12 11 23 29 30
18 16 13 9 8 7 8 3 3 4 6 2 3 3 6 7 3 4 3 3 5 2 2 4 5 9 6 8 6 6 6 4 6 4 4 3 7 8 12 24 32 27 29 26 25
19 14 11 7 7 10 10 3 7 7 2 2 2 3 3 3 3 4 6 5 7 13 9 5 5 1 3 3 8 5 5 6 1 2 2 5 6 8 9 10 12 20 21 28 24
19 16 9 7 8 13 2 7 5 4 4 2 5 6 5 3 5 6 7 5 5 15 4 3 3 1 2 3 1 4 4 3 3 4 6 4 5 7 8 7 12 9 9 15 14
17 8 4 4 12 9 4 7 5 10 6 5 3 2 5 2 6 5 5 4 6 4 10 4 4 1 2 7 10 4 4 3 2 3 4 3 5 7 8 8 7 8 15 15 16
8 2 2 8 3 4 3 5 6 5 5 6 4 6 5 5 6 6 8 7 10 12 10 8 4 5 11 3 6 5 9 8 5 5 3 1 10 8 8 4 6 10 7 8 11
12 7 9 15 4 6 4 4 5 5 8 4 7 7 5 5 3 7 6 10 11 9 8 7 4 4 3 1 2 5 7 11 2 3 8 5 7 2 3 3 7 6 7 9 13
6 3 4 13 13 3 7 6 5 5 5 7 4 6 8 14 12 9 5 4 2 9 9 9 5 6 10 5 4 5 8 14 15 5 14 19 23 13 11 10 7 9 11 15 18
3 3 4 3 5 6 4 7 12 7 5 1 2 2 3 5 5 13 6 4 7 6 6 9 14 8 10 11 5 5 6 13 17 24 13 17 21 16 17 16 18 24 18 21 24
4 4 8 10 17 11 9 7 12 5 5 5 8 9 6 5 4 4 1 2 4 5 2 1 10 6 15 12 16 20 18 11 18 22 19 22 32 8 14 15 10 21 24 28 32
2 3 4 4 3 3 3 4 4 9 5 4 8 9 8 4 9 15 15 18 8 3 1 2 2 3 13 9 10 13 16 17 17 14 15 18 26 13 8 10 20 23 29 34 38
Wind_Direction
317 318 325 331 339 344 344 343 345 349 354 360 355 344 340 339 332 334 358 343 322 302 284 307 303 309 285 241 197 159 109 199 202 188 196 233 350 352 326 285 197 191 195 200 181
304 304 312 320 321 325 328 330 334 337 340 347 352 342 340 341 332 38 66 43 23 343 302 293 305 332 268 236 199 145 169 214 242 187 174 191 203 315 9 343 261 236 219 197 177
303 303 307 308 308 309 316 317 321 325 329 332 340 337 331 335 319 234 264 358 347 324 305 287 257 31 289 263 233 168 179 253 12 10 19 230 252 246 316 351 329 335 264 188 181
303 302 300 298 298 299 300 304 309 314 318 322 325 327 328 323 267 195 232 330 341 336 335 236 183 119 30 283 3 32 350 358 309 341 348 339 322 204 258 251 286 310 304 210 192
298 296 294 292 291 290 291 294 297 300 308 311 315 315 324 307 267 224 241 309 333 347 24 123 166 146 139 334 332 134 314 337 316 314 318 313 286 265 250 253 258 288 279 227 206
302 299 294 290 288 287 286 286 289 292 294 301 304 304 307 282 253 221 210 310 344 3 36 143 112 15 150 204 290 290 290 296 301 303 301 286 283 233 275 288 261 298 284 236 215
307 305 301 293 287 284 282 281 281 284 287 291 295 291 286 277 248 219 223 262 298 313 351 148 185 132 330 322 334 298 303 308 243 243 254 300 273 230 261 261 252 241 286 259 230
316 314 311 303 293 284 278 275 275 277 281 283 284 281 262 264 244 228 231 245 261 307 277 248 207 219 221 327 347 3 45 330 295 204 226 171 259 291 282 238 253 245 259 252 242
321 319 316 313 301 289 277 270 272 273 273 273 270 254 265 249 229 218 221 231 254 272 229 217 173 187 134 92 1 7 258 232 302 247 266 202 264 235 260 237 245 245 239 260 247
329 325 318 314 305 291 282 269 271 271 261 259 242 255 239 219 203 207 210 222 240 186 148 164 130 81 55 125 217 217 215 238 249 313 10 280 267 290 286 268 267 240 226 242 250
331 330 325 317 309 294 274 264 262 250 230 219 205 206 165 201 197 199 203 210 193 175 160 105 119 213 210 201 180 210 245 238 268 273 336 278 282 279 284 282 249 261 242 226 239
335 332 328 322 309 291 259 222 242 286 291 258 247 243 226 196 194 204 200 190 169 189 116 32 233 234 178 173 220 239 252 271 266 262 192 284 281 268 268 263 239 247 256 247 229
338 338 336 330 319 291 248 237 255 294 275 279 242 240 236 213 211 204 199 195 176 165 189 184 232 81 153 161 173 227 214 219 242 318 259 276 280 239 237 245 251 244 245 250 236
334 338 342 341 341 328 247 231 247 265 24 263 229 223 173 185 213 213 199 184 181 214 180 230 251 210 194 195 163 240 206 213 244 122 249 28 292 259 249 249 227 236 230 233 233
328 332 341 344 313 342 42 182 152 138 354 207 162 161 166 175 141 164 188 201 188 188 138 241 174 186 209 214 164 221 167 199 203 216 318 246 258 283 289 237 238 236 235 230 234
322 322 327 333 295 244 176 155 141 49 253 192 135 174 135 167 129 126 161 170 164 192 239 236 198 179 207 200 179 121 102 62 74 133 247 241 203 272 223 241 256 247 242 235 233
310 309 306 310 282 222 181 159 37 156 326 199 191 166 160 188 197 174 166 176 174 181 226 305 224 188 162 144 79 145 129 288 309 206 251 348 197 236 239 235 240 241 254 252 244
317 315 292 291 265 209 173 63 203 233 256 65 107 107 185 161 227 180 146 245 237 112 126 203 298 167 187 194 179 180 172 170 222 212 273 21 233 251 239 244 244 251 259 264 260
327 316 306 249 239 202 181 174 207 209 293 131 128 178 243 218 166 148 206 221 217 174 190 171 273 190 165 159 152 187 188 199 65 125 286 228 274 288 252 261 272 254 247 252 255
331 327 300 248 203 189 152 238 227 219 88 27 211 188 224 197 171 184 187 201 232 192 170 208 275 228 159 133 80 166 166 94 174 243 242 259 258 235 287 247 255 289 274 273 265
331 321 290 227 186 189 211 227 254 251 183 185 230 267 226 221 196 206 224 254 207 164 190 146 155 317 123 210 178 144 203 201 183 186 221 287 251 216 238 245 251 270 276 257 232
339 336 243 174 178 218 221 207 236 246 226 209 209 203 225 239 225 223 217 230 176 150 170 211 171 200 216 242 200 184 197 168 166 217 233 212 266 216 206 218 248 287 274 242 219
319 266 225 197 220 233 274 269 252 221 247 228 236 204 184 213 273 219 226 249 209 172 187 179 217 244 225 330 358 210 203 206 134 95 210 220 257 110 155 280 285 258 219 200 197
290 316 247 212 241 197 268 268 253 263 257 250 258 249 252 255 244 251 232 293 202 214 210 182 195 208 230 225 138 199 205 209 208 221 245 236 262 263 282 269 228 233 223 204 197
272 269 315 292 248 287 301 283 276 276 255 309 280 237 240 257 243 247 258 275 240 237 219 174 244 227 246 262 231 239 222 200 206 231 237 257 251 248 249 254 257 246 229 202 193
313 337 338 316 326 322 309 274 288 328 323 276 262 353 319 256 241 280 303 212 258 341 230 264 247 205 258 256 261 262 254 213 219 229 243 250 262 245 248 249 232 229 206 198 197
263 313 312 278 315 323 287 332 342 345 288 32 15 336 307 335 326 302 287 288 282 282 309 307 255 199 254 234 257 265 235 228 232 220 233 241 256 258 246 219 233 222 215 209 202